Weather Roundup
Issued by NWS

Home | Current Version | Previous Version | Graphics & Text | Print | Product List | Glossary Off
Versions: 1 2 3 4 5 6 7 8 9 10 11 12 13 14 15 16 17 18 19 20 21 22 23 24 25 26 27 28 29 30 31 32 33 34 35 36 37 38 39 40 41 42 43 44 45 46 47 48 49 50

000
NZUS93 KARX 220310
HRRWXR

CURRENT HOURLY OBSERVATIONS ACROSS
MUCH OF THE UPPER MISSISSIPPI VALLEY
NATIONAL WEATHER SERVICE LA CROSSE WI
1000 PM CDT SAT OCT 21 2017


...SOUTHEAST MINNESOTA...


CITY           SKY/WX    TMP DP  RH WIND       PRES   REMARKS
ROCHESTER      RAIN      55  54  96 W14       29.81R
ROCHESTER/MAYO CLOUDY    56  54  92 W9        29.80R
WINONA         LGT RAIN  66  63  88 S6        29.77F
AUSTIN         LGT RAIN  55  52  88 W10       29.81R
ALBERT LEA     NOT AVBL
DODGE CENTER   LGT RAIN  54  52  94 W13       29.82R
PRESTON        CLOUDY    61  59  91 SW7       29.80R
OWATONNA       CLOUDY    54  52  94 W8        29.82R
FARIBAULT      CLOUDY    55  52  88 W8        29.82R
$$

...ELSEWHERE IN MINNESOTA...


CITY           SKY/WX    TMP DP  RH WIND       PRES   REMARKS
MINNEAPOLIS    CLOUDY    56  53  90 W9        29.78R
INTNL FALLS    LGT RAIN  54  51  90 SW8       29.59R
DULUTH         CLOUDY    62  61  96 S16       29.66F
RED WING       CLOUDY    57  52  82 NW5       29.78R
REDWOOD FALLS  CLOUDY    50  41  71 W12       29.84R
MANKATO        PTCLDY    53  45  74 W17       29.85R
WORTHINGTON    CLOUDY    46  39  76 W7        29.89R
FAIRMONT       MOCLDY    52  43  71 W17       29.88R
$$

...SOUTHWEST WISCONSIN...


CITY           SKY/WX    TMP DP  RH WIND       PRES   REMARKS
LA CROSSE      TSTM      68  63  84 S14       29.78R
PRAIRIE DU CHI CLOUDY    73  59  61 SE10G23   29.81R
BOSCOBEL       CLOUDY    73  60  63 S12G21    29.82R
LONE ROCK      CLEAR     71  62  73 S14G22    29.85R
PLATTEVILLE    MOCLDY    70  62  74 S18G25    29.87S
FORT MC COY    CLOUDY    71  60  67 S10G20    29.79S
CAMP DOUGLAS   PTCLDY    71  59  67 SE13G22   29.80S
MAUSTON-NEW LI MOCLDY   N/A N/A N/A S14G24    29.82S
VIROQUA        MOCLDY    69  61  76 S13G23    29.81S
WIS DELLS      CLEAR     68  57  68 S16G23    29.87R
$$

...ELSEWHERE IN WISCONSIN...


CITY           SKY/WX    TMP DP  RH WIND       PRES   REMARKS
MILWAUKEE      PTCLDY    68  58  70 S13       29.96F
MADISON        PTCLDY    69  59  70 S16G22    29.90R
GREEN BAY      CLEAR     65  58  78 S15       29.89F
EAU CLAIRE     RAIN      63  60  90 S14G26    29.76S FOG
BLACK RVR FLS  MOCLDY    71  57  61 S7        29.77S
MEDFORD        CLOUDY    64  57  76 S12       29.81R
WAUSAU         PTCLDY    67  56  67 S13G23    29.82S
WIS RAPIDS     CLOUDY    69  58  67 S12       29.84S
MARSHFIELD     CLOUDY    66  56  70 S9        29.80F
RICE LAKE      RAIN      63  60  88 SE9       29.73F
$$

...NORTHEAST IOWA...


CITY           SKY/WX    TMP DP  RH WIND       PRES   REMARKS
WATERLOO       TSTM      60  58  92 SW14      29.82S FOG
DUBUQUE        CLOUDY    69  61  75 S14       29.87R
DECORAH        LGT RAIN  63  61  94 S9G20     29.81R
MASON CITY     CLOUDY    54  50  86 NW9       29.85R
CHARLES CITY   LGT RAIN  59  59 100 NW9G17    29.82R
OELWEIN        HVY RAIN  63  63 100 SW22G43   29.84R VSB 3/4
$$

...ELSEWHERE IN IOWA...


CITY           SKY/WX    TMP DP  RH WIND       PRES   REMARKS
DES MOINES     TSTM      56  53  90 W7        29.90R
IOWA CITY      CLOUDY    72  62  71 S13       29.86R
FORT DODGE     CLOUDY    53  44  71 W10G18    29.89R
MARSHALLTOWN   TSTM      56  55  97 W15       29.85R
CEDAR RAPIDS   CLOUDY    72  61  68 S13G25    29.83R
$$

...NORTHERN ILLINOIS...


CITY           SKY/WX    TMP DP  RH WIND       PRES   REMARKS
CHICAGO-OHARE  PTCLDY    69  56  62 S16       29.99F
CHICAGO-MIDWAY PTCLDY    71  57  61 S15G24    30.01R
MOLINE         CLEAR     71  59  65 S12       29.88R
ROCKFORD       PTCLDY    69  58  67 S17       29.95S
PEORIA         MOCLDY    70  57  63 S22G33    29.95F
$$

NOTE: "FAIR" INDICATES FEW OR NO CLOUDS BELOW 12,000 FEET WITH NO
SIGNIFICANT WEATHER AND/OR OBSTRUCTIONS TO VISIBILITY. WIND
SPEEDS ARE IN MILES-PER-HOUR.




USA.gov is the U.S. government's official web portal to all federal, state and local government web resources and services.